Starlink 31627

operational
NORAD ID: 59268 Int'l Des: 2024-050 Owner: SPXS Country: US Constellation: starlink
LEOCIRCULAR

Starlink 31627について

説明を読み込み中...

リアルタイム位置

3D地球を読み込み中...

次回通過

高度履歴

Altitude vs Time

uPlot chart will show altitude changes over time

軌道要素

1 59268U 24050Q 25351.97865917 .00017538 00000-0 60289-3 0 9991
2 59268 53.1596 200.8578 0001097 78.8330 281.2794 15.30199037 98038
Epoch: Dec 17, 2025 • Age: 15 hours

現在のステータス

高度 489.1 km
速度 7.62 km/s
衛星直下点 -40.63°S, 153.26°W
打ち上げ日 Mar 19, 2024
運用期間 1.7 years
タイプ internet

技術仕様

分類 Payload
質量 730.00 kg
乾燥質量 700.00 kg
総質量 730.00 kg
長さ 0.30 m
直径 4.10 m
スパン 29.00 m
形状 Box + pan
製造者 SPXS
バスタイプ Starlink V2M
フェーズステータス In Orbit
所有者/国 SPXS/US

大規模コンステレーション

Loading constellations...